Flag for Paraguay Weather past 2 weeks in Ciudad del Este, Paraguay

Now
70 °F

Clear.


Feels Like: 70 °F
Forecast: N/A
Wind: 7 mph from East

Location: Foz Do Iguacu Aeroporto

Current Time: Jul 12, 2014 at 5:57:25 PM

Latest Report: Jul 12, 2014 at 5:00 PM


Visibility: 10 mi

Pressure: 30.12 "Hg

Humidity: 78%

Dew point: 63 °F

Location of Ciudad del EsteLocation

Historic Weather in Ciudad del Este — Graph

°F

Ciudad del Este temperature yesterday

Maximum temperature yesterday: 73 °F (at 2:00 PM)
Minimum temperature yesterday: 57 °F (at 1:00 AM)
Average temperature yesterday: 64 °F

Past Weeks' High & Low Weather Summary

 TemperatureHumidityPressure
High84 °F (Jul 4, 12:00 PM)100% (Jun 27, 4:00 PM)30.27 "Hg (Jun 27, 4:00 PM)
Low43 °F (Jul 9, 4:00 AM)48% (Jul 4, 12:00 PM)29.92 "Hg (Jul 2, 2:00 PM)
Average62 °F85%30.09 "Hg
* Reported Jun 27 4:00 PM — Jul 12 4:00 PM, Ciudad del Este, Weather by CustomWeather, © 2014

Note: Actual official high and low records may vary slightly from our data, if they occured in-between our weather recording intervals... More about our weather records

Advertising

Ciudad del Este weather history for previous 24 hours

 ConditionsComfort  
Time TempWeatherWind HumidityBarometerVisibility
4:00 PM
Jul 12
75 °FSunny.9 mph61%30.12 "Hg10 mi
3:00 PM75 °FSunny.9 mph61%30.12 "Hg10 mi
2:00 PM75 °FSunny.9 mph61%30.12 "Hg10 mi
1:00 PM75 °FSunny.8 mph61%30.15 "Hg10 mi
12:00 PM72 °FSunny.9 mph65%30.18 "Hg10 mi
11:00 AM70 °FSunny.10 mph64%30.21 "Hg10 mi
10:00 AM66 °FSunny.12 mph73%30.21 "Hg10 mi
9:00 AM64 °FSunny.9 mph73%30.21 "Hg10 mi
8:00 AM61 °FSunny.13 mph77%30.21 "Hg10 mi
7:00 AM59 °FSunny.9 mph82%30.18 "Hg10 mi
6:00 AM57 °FSunny.8 mph88%30.18 "Hg10 mi
5:00 AM59 °FClear.7 mph82%30.15 "Hg10 mi
4:00 AM59 °FClear.16 mph82%30.12 "Hg10 mi
3:00 AM59 °FClear.12 mph82%30.15 "Hg10 mi
2:00 AM59 °FClear.13 mph88%30.15 "Hg10 mi
1:00 AM61 °FClear.12 mph88%30.15 "Hg10 mi
12:00 AM61 °FClear.12 mph88%30.15 "Hg10 mi
11:00 PM
Jul 11
63 °FClear.12 mph88%30.15 "Hg10 mi
10:00 PM63 °FClear.8 mph88%30.15 "Hg10 mi
9:00 PM63 °FClear.5 mph88%30.15 "Hg10 mi
8:00 PM61 °FClear.2 mph94%30.15 "Hg10 mi
7:00 PM63 °FClear.3 mph94%30.12 "Hg10 mi
6:00 PM68 °FClear.3 mph83%30.12 "Hg10 mi
5:00 PM70 °FClear.5 mph73%30.12 "Hg10 mi
Weather by CustomWeather, © 2014

See weather overviewHow to use our weather pages